Weather History for Dryden, ON

Change the Weather History Date:

Friday, March 15, 2013

  Actual Average Record
Temperature  
Mean Temperature 6 °F -  
Max Temperature 17 °F 46 °F 53 °F (2003)
Min Temperature -4 °F 29 °F -11 °F (1997)
Degree Days  
Heating Degree Days 58    
Moisture  
Dew Point -5 °F    
Average Humidity 62    
Maximum Humidity 86    
Minimum Humidity 31    
Precipitation  
Precipitation 0.00 in 0.11 in - ()
Sea Level Pressure  
Sea Level Pressure 30.18 in    
Wind  
Wind Speed 7 mph ()    
Max Wind Speed 14 mph    
Max Gust Speed 18 mph    
Visibility 9.0 miles    
Events Snow    
Averages and records for this station are not official NWS values.
T = Trace of Precipitation, MM = Missing Value Source: Averaged Metar Reports

Daily Weather History Graph

Daily Weather History Graph

Search for Another Location

Airport:

Trip Planner

Search our weather history database for the weather conditions in past years. The results will help you decide how hot, cold, wet, or windy it might be!

Date:

Astronomy

Mar. 15, 2013 Rise Set
Actual Time 7:23 AM CDT 7:16 PM CDT
Civil Twilight 6:51 AM CDT 7:48 PM CDT
Nautical Twilight 6:14 AM CDT 8:26 PM CDT
Astronomical Twilight 5:35 AM CDT 9:04 PM CDT
Moon 8:49 AM CDT (3/15) 11:59 PM CDT (3/15)
Length of Visible Light 12h 56m
Length of Day
11h 52m
Waxing Crescent, 15% of the Moon is Illuminated
Mar 15
Waxing Crescent
Mar 19
First Quarter
Mar 27
Full
Apr 2
Last Quarter
Apr 10
New

Hourly Weather History & Observations

Time (CDT) Temp. Windchill Dew Point Humidity Pressure Visibility Wind Dir Wind Speed Gust Speed Precip Events Conditions
12:00 AM 17.6 °F 8.2 °F 14.0 °F 86% 30.12 in 9.0 mi North 6.9 mph - N/A   Clear
12:01 AM 17.6 °F 7.3 °F 14.0 °F 86% 30.12 in 9.0 mi North 8.1 mph - N/A Snow Light Snow
12:24 AM 15.8 °F 4.2 °F 12.2 °F 86% 30.12 in 9.0 mi NNE 9.2 mph - N/A   Mostly Cloudy
12:40 AM 15.8 °F 3.4 °F 12.2 °F 86% 30.13 in 9.0 mi NNE 10.4 mph - N/A Snow Light Snow
12:50 AM 15.8 °F 3.4 °F 12.2 °F 86% 30.13 in 9.0 mi NNE 10.4 mph - N/A Snow Light Snow
1:00 AM 14.0 °F 1.2 °F 10.4 °F 86% 30.13 in 9.0 mi NNE 10.4 mph - N/A Snow Light Snow
1:19 AM 14.0 °F 3.9 °F 10.4 °F 86% 30.13 in 9.0 mi North 6.9 mph - N/A Snow Light Snow
1:28 AM 14.0 °F 1.2 °F 8.6 °F 79% 30.13 in 9.0 mi North 10.4 mph 18.4 mph N/A   Mostly Cloudy
2:00 AM 12.2 °F -0.2 °F 6.8 °F 79% 30.14 in 9.0 mi North 9.2 mph 18.4 mph N/A   Mostly Cloudy
3:00 AM 8.6 °F -6.3 °F 5.0 °F 85% 30.15 in 9.0 mi North 11.5 mph 18.4 mph N/A   Overcast
4:00 AM 6.8 °F -4.8 °F 3.2 °F 85% 30.17 in 9.0 mi North 6.9 mph - N/A   Clear
5:00 AM 3.2 °F -14.6 °F -0.4 °F 85% 30.18 in 9.0 mi NNE 13.8 mph - N/A   Clear
6:00 AM 1.4 °F -12.5 °F -2.2 °F 85% 30.21 in 9.0 mi NNE 8.1 mph - N/A   Clear
7:00 AM -2.2 °F -19.9 °F -9.4 °F 71% 30.22 in 9.0 mi NNE 11.5 mph 18.4 mph N/A   Clear
8:00 AM -4.0 °F -21.2 °F -13.0 °F 65% 30.25 in 9.0 mi NNE 10.4 mph - N/A   Clear
9:00 AM -4.0 °F -23.7 °F -14.8 °F 60% 30.25 in 9.0 mi NE 13.8 mph - N/A   Clear
10:00 AM -2.2 °F -15.6 °F -14.8 °F 55% 30.25 in 9.0 mi ENE 6.9 mph - N/A   Clear
11:00 AM -0.4 °F -13.4 °F -16.6 °F 46% 30.25 in 9.0 mi ENE 6.9 mph - N/A   Mostly Cloudy
12:00 PM 1.4 °F -11.3 °F -14.8 °F 47% 30.23 in 9.0 mi ENE 6.9 mph - N/A   Clear
1:00 PM 3.2 °F -11.3 °F -18.4 °F 36% 30.21 in 9.0 mi ENE 9.2 mph - N/A   Clear
2:00 PM 5.0 °F -6.9 °F -16.6 °F 36% 30.20 in 9.0 mi ENE 6.9 mph - N/A   Clear
3:00 PM 6.8 °F -6.9 °F -18.4 °F 31% 30.19 in 9.0 mi ENE 9.2 mph - N/A   Clear
4:00 PM 6.8 °F -2.0 °F -14.8 °F 37% 30.17 in 9.0 mi Variable 4.6 mph - N/A   Scattered Clouds
5:00 PM 6.8 °F -2.0 °F -16.6 °F 34% 30.18 in 9.0 mi NE 4.6 mph - N/A   Mostly Cloudy
6:00 PM 6.8 °F -4.8 °F -14.8 °F 37% 30.18 in 9.0 mi NE 6.9 mph - N/A   Overcast
7:00 PM 6.8 °F -4.8 °F -14.8 °F 37% 30.19 in 9.0 mi NE 6.9 mph - N/A   Overcast
8:00 PM 6.8 °F - -14.8 °F 37% 30.19 in 9.0 mi NNE 2.3 mph - N/A   Overcast
9:00 PM 5.0 °F - -14.8 °F 40% 30.18 in 9.0 mi Calm Calm - N/A   Overcast
10:00 PM 5.0 °F -2.1 °F -14.8 °F 40% 30.19 in 9.0 mi WNW 3.5 mph - N/A   Overcast
11:00 PM 5.0 °F -2.1 °F -14.8 °F 40% 30.18 in 9.0 mi North 3.5 mph - N/A   Overcast